Time,TemperatureF,DewpointF,PressureIn,WindDirection,WindDirectionDegrees,WindSpeedMPH,WindSpeedGustMPH,Humidity,HourlyPrecipIn,Conditions,Clouds,dailyrainin,SoftwareType,DateUTC
2013-01-15 00:07:00,26.3,20.0,30.28,NW,319,0.0,-999.0,78,-99.99,,,0.04,weatherlink.com 1.10,2013-01-15 05:07:00,
2013-01-15 00:22:00,26.3,20.0,30.27,NW,319,0.0,-999.0,77,-99.99,,,0.04,weatherlink.com 1.10,2013-01-15 05:22:00,
2013-01-15 00:37:00,26.3,20.0,30.27,WNW,301,0.0,-999.0,77,-99.99,,,0.04,weatherlink.com 1.10,2013-01-15 05:37:00,
2013-01-15 00:52:00,26.1,20.0,30.28,NNW,329,0.0,-999.0,76,-99.99,,,0.00,weatherlink.com 1.10,2013-01-15 05:52:00,
2013-01-15 01:07:00,26.1,20.0,30.27,WNW,302,1.0,-999.0,76,-99.99,,,0.00,weatherlink.com 1.10,2013-01-15 06:07:00,
2013-01-15 01:22:00,26.0,19.0,30.27,NNW,332,0.0,-999.0,76,-99.99,,,0.00,weatherlink.com 1.10,2013-01-15 06:22:00,
2013-01-15 01:37:00,26.0,19.0,30.27,NNW,337,2.0,-999.0,76,-99.99,,,0.00,weatherlink.com 1.10,2013-01-15 06:37:00,
2013-01-15 01:52:00,26.0,20.0,30.28,NNW,328,0.0,-999.0,77,-99.99,,,0.00,weatherlink.com 1.10,2013-01-15 06:52:00,
2013-01-15 02:07:00,25.8,19.0,30.29,North,352,0.0,-999.0,76,-99.99,,,0.00,weatherlink.com 1.10,2013-01-15 07:07:00,
2013-01-15 02:22:00,25.8,19.0,30.29,North,354,0.0,-999.0,76,-99.99,,,0.00,weatherlink.com 1.10,2013-01-15 07:22:00,
2013-01-15 02:37:00,25.8,19.0,30.29,NNW,347,1.0,-999.0,75,-99.99,,,0.00,weatherlink.com 1.10,2013-01-15 07:37:00,
2013-01-15 02:52:00,25.8,19.0,30.30,NW,325,0.0,-999.0,75,-99.99,,,0.00,weatherlink.com 1.10,2013-01-15 07:52:00,
2013-01-15 03:07:00,25.7,19.0,30.30,NNW,346,1.0,-999.0,75,-99.99,,,0.00,weatherlink.com 1.10,2013-01-15 08:07:00,
2013-01-15 03:22:00,25.6,18.0,30.30,North,354,1.0,-999.0,74,-99.99,,,0.00,weatherlink.com 1.10,2013-01-15 08:22:00,
2013-01-15 03:37:00,25.6,18.0,30.29,North,354,0.0,-999.0,74,-99.99,,,0.00,weatherlink.com 1.10,2013-01-15 08:37:00,
2013-01-15 03:52:00,25.6,18.0,30.28,NNW,328,1.0,-999.0,74,-99.99,,,0.00,weatherlink.com 1.10,2013-01-15 08:52:00,
2013-01-15 04:07:00,25.7,19.0,30.29,NNW,342,2.0,-999.0,75,-99.99,,,0.00,weatherlink.com 1.10,2013-01-15 09:07:00,
2013-01-15 04:22:00,25.7,18.0,30.29,North,353,0.0,-999.0,74,-99.99,,,0.00,weatherlink.com 1.10,2013-01-15 09:22:00,
2013-01-15 04:37:00,25.7,18.0,30.28,North,353,0.0,-999.0,73,-99.99,,,0.00,weatherlink.com 1.10,2013-01-15 09:37:00,
2013-01-15 04:52:00,25.7,18.0,30.28,North,0,2.0,-999.0,72,-99.99,,,0.00,weatherlink.com 1.10,2013-01-15 09:52:00,
2013-01-15 05:07:00,25.7,18.0,30.28,North,354,1.0,-999.0,73,-99.99,,,0.00,weatherlink.com 1.10,2013-01-15 10:07:00,
2013-01-15 05:22:00,25.7,18.0,30.28,NW,326,2.0,-999.0,72,-99.99,,,0.00,weatherlink.com 1.10,2013-01-15 10:22:00,
2013-01-15 05:37:00,25.7,18.0,30.28,NNW,337,0.0,-999.0,72,-99.99,,,0.00,weatherlink.com 1.10,2013-01-15 10:37:00,
2013-01-15 05:52:00,25.8,18.0,30.28,NW,325,0.0,-999.0,73,-99.99,,,0.00,weatherlink.com 1.10,2013-01-15 10:52:00,
2013-01-15 06:07:00,25.8,18.0,30.29,NNW,346,2.0,-999.0,73,-99.99,,,0.00,weatherlink.com 1.10,2013-01-15 11:07:00,
2013-01-15 06:22:00,25.8,18.0,30.29,NW,312,3.0,-999.0,72,-99.99,,,0.00,weatherlink.com 1.10,2013-01-15 11:22:00,
2013-01-15 06:37:00,25.8,18.0,30.30,NNW,328,2.0,-999.0,72,-99.99,,,0.00,weatherlink.com 1.10,2013-01-15 11:37:00,
2013-01-15 06:52:00,26.0,19.0,30.31,North,356,2.0,-999.0,74,-99.99,,,0.00,weatherlink.com 1.10,2013-01-15 11:52:00,
2013-01-15 07:07:00,25.8,18.0,30.32,NNW,330,0.0,-999.0,71,-99.99,,,0.00,weatherlink.com 1.10,2013-01-15 12:07:00,
2013-01-15 07:22:00,26.0,18.0,30.32,NNW,342,1.0,-999.0,72,-99.99,,,0.00,weatherlink.com 1.10,2013-01-15 12:22:00,
2013-01-15 07:37:00,25.8,18.0,30.32,NW,326,0.0,-999.0,71,-99.99,,,0.00,weatherlink.com 1.10,2013-01-15 12:37:00,
2013-01-15 07:52:00,25.8,18.0,30.32,NNW,330,5.0,-999.0,73,-99.99,,,0.00,weatherlink.com 1.10,2013-01-15 12:52:00,
2013-01-15 08:07:00,25.8,19.0,30.33,North,349,2.0,-999.0,74,-99.99,,,0.00,weatherlink.com 1.10,2013-01-15 13:07:00,
2013-01-15 08:22:00,25.6,17.0,30.34,NNW,335,0.0,-999.0,71,-99.99,,,0.00,weatherlink.com 1.10,2013-01-15 13:22:00,
2013-01-15 08:37:00,25.7,18.0,30.34,NNW,343,0.0,-999.0,72,-99.99,,,0.00,weatherlink.com 1.10,2013-01-15 13:37:00,
2013-01-15 08:52:00,25.6,17.0,30.35,NNW,335,6.0,-999.0,70,-99.99,,,0.00,weatherlink.com 1.10,2013-01-15 13:52:00,
2013-01-15 09:07:00,25.7,18.0,30.35,North,359,3.0,-999.0,71,-99.99,,,0.00,weatherlink.com 1.10,2013-01-15 14:07:00,
2013-01-15 09:22:00,25.6,17.0,30.36,NW,311,0.0,-999.0,69,-99.99,,,0.00,weatherlink.com 1.10,2013-01-15 14:22:00,
2013-01-15 09:37:00,25.8,17.0,30.35,NNW,339,0.0,-999.0,68,-99.99,,,0.00,weatherlink.com 1.10,2013-01-15 14:37:00,
2013-01-15 09:52:00,25.8,17.0,30.34,NNW,336,1.0,-999.0,70,-99.99,,,0.00,weatherlink.com 1.10,2013-01-15 14:52:00,
2013-01-15 10:07:00,26.9,18.0,30.34,North,352,0.0,-999.0,69,-99.99,,,0.00,weatherlink.com 1.10,2013-01-15 15:07:00,
2013-01-15 10:22:00,27.5,17.0,30.34,NE,45,0.0,-999.0,66,-99.99,,,0.00,weatherlink.com 1.10,2013-01-15 15:22:00,
2013-01-15 10:37:00,27.2,17.0,30.35,NE,55,0.0,-999.0,66,-99.99,,,0.00,weatherlink.com 1.10,2013-01-15 15:37:00,
2013-01-15 10:52:00,28.4,18.0,30.35,North,0,3.0,-999.0,66,-99.99,,,0.00,weatherlink.com 1.10,2013-01-15 15:52:00,
2013-01-15 11:07:00,28.1,18.0,30.34,NNW,339,2.0,-999.0,65,-99.99,,,0.00,weatherlink.com 1.10,2013-01-15 16:07:00,
2013-01-15 11:22:00,28.4,18.0,30.34,NNE,17,1.0,-999.0,64,-99.99,,,0.00,weatherlink.com 1.10,2013-01-15 16:22:00,
2013-01-15 11:37:00,28.1,16.0,30.32,NE,51,0.0,-999.0,62,-99.99,,,0.00,weatherlink.com 1.10,2013-01-15 16:37:00,
2013-01-15 11:52:00,28.1,18.0,30.31,North,0,2.0,-999.0,65,-99.99,,,0.00,weatherlink.com 1.10,2013-01-15 16:52:00,
2013-01-15 12:07:00,28.7,18.0,30.30,North,349,6.0,-999.0,64,-99.99,,,0.00,weatherlink.com 1.10,2013-01-15 17:07:00,
2013-01-15 12:22:00,29.3,18.0,30.28,NNW,344,0.0,-999.0,63,-99.99,,,0.00,weatherlink.com 1.10,2013-01-15 17:22:00,
2013-01-15 12:37:00,29.4,18.0,30.28,North,0,0.0,-999.0,62,-99.99,,,0.00,weatherlink.com 1.10,2013-01-15 17:37:00,
2013-01-15 12:52:00,29.5,17.0,30.28,NNW,337,0.0,-999.0,61,-99.99,,,0.00,weatherlink.com 1.10,2013-01-15 17:52:00,
2013-01-15 13:07:00,30.1,18.0,30.27,North,354,0.0,-999.0,61,-99.99,,,0.00,weatherlink.com 1.10,2013-01-15 18:07:00,
2013-01-15 13:22:00,30.0,18.0,30.28,North,356,2.0,-999.0,60,-99.99,,,0.00,weatherlink.com 1.10,2013-01-15 18:22:00,
2013-01-15 13:37:00,29.8,17.0,30.27,South,179,0.0,-999.0,59,-99.99,,,0.00,weatherlink.com 1.10,2013-01-15 18:37:00,
2013-01-15 13:52:00,30.7,17.0,30.26,NNW,347,0.0,-999.0,58,-99.99,,,0.00,weatherlink.com 1.10,2013-01-15 18:52:00,
2013-01-15 14:07:00,31.0,17.0,30.25,North,359,0.0,-999.0,57,-99.99,,,0.00,weatherlink.com 1.10,2013-01-15 19:07:00,
2013-01-15 14:22:00,30.7,17.0,30.24,North,359,0.0,-999.0,57,-99.99,,,0.00,weatherlink.com 1.10,2013-01-15 19:22:00,
2013-01-15 14:37:00,30.6,17.0,30.22,North,359,1.0,-999.0,58,-99.99,,,0.00,weatherlink.com 1.10,2013-01-15 19:37:00,
2013-01-15 14:52:00,31.0,18.0,30.23,North,357,0.0,-999.0,58,-99.99,,,0.00,weatherlink.com 1.10,2013-01-15 19:52:00,
2013-01-15 15:07:00,31.3,17.0,30.25,North,359,2.0,-999.0,56,-99.99,,,0.00,weatherlink.com 1.10,2013-01-15 20:07:00,
2013-01-15 15:22:00,31.0,16.0,30.25,NNW,344,0.0,-999.0,53,-99.99,,,0.00,weatherlink.com 1.10,2013-01-15 20:22:00,
2013-01-15 15:37:00,31.0,17.0,30.25,North,354,0.0,-999.0,57,-99.99,,,0.00,weatherlink.com 1.10,2013-01-15 20:37:00,
2013-01-15 15:52:00,30.7,17.0,30.25,North,354,0.0,-999.0,58,-99.99,,,0.00,weatherlink.com 1.10,2013-01-15 20:52:00,
2013-01-15 16:07:00,30.4,17.0,30.23,North,354,0.0,-999.0,57,-99.99,,,0.00,weatherlink.com 1.10,2013-01-15 21:07:00,
2013-01-15 16:22:00,30.0,17.0,30.23,North,354,0.0,-999.0,58,-99.99,,,0.00,weatherlink.com 1.10,2013-01-15 21:22:00,
2013-01-15 16:37:00,29.8,17.0,30.23,North,354,0.0,-999.0,60,-99.99,,,0.00,weatherlink.com 1.10,2013-01-15 21:37:00,
2013-01-15 16:52:00,29.7,17.0,30.23,North,354,0.0,-999.0,60,-99.99,,,0.00,weatherlink.com 1.10,2013-01-15 21:52:00,
2013-01-15 17:07:00,29.4,17.0,30.23,NE,56,0.0,-999.0,60,-99.99,,,0.00,weatherlink.com 1.10,2013-01-15 22:07:00,
2013-01-15 17:22:00,29.3,17.0,30.23,NE,55,0.0,-999.0,61,-99.99,,,0.00,weatherlink.com 1.10,2013-01-15 22:22:00,
2013-01-15 17:37:00,28.8,19.0,30.20,NNW,344,0.0,-999.0,67,-99.99,,,0.00,weatherlink.com 1.10,2013-01-15 22:37:00,
2013-01-15 17:52:00,28.5,20.0,30.22,North,349,0.0,-999.0,69,-99.99,,,0.00,weatherlink.com 1.10,2013-01-15 22:52:00,
2013-01-15 18:07:00,28.1,19.0,30.23,North,349,0.0,-999.0,70,-99.99,,,0.00,weatherlink.com 1.10,2013-01-15 23:07:00,
2013-01-15 18:22:00,28.1,20.0,30.23,North,349,0.0,-999.0,71,-99.99,,,0.00,weatherlink.com 1.10,2013-01-15 23:22:00,
2013-01-15 18:37:00,27.9,20.0,30.23,North,349,0.0,-999.0,72,-99.99,,,0.00,weatherlink.com 1.10,2013-01-15 23:37:00,
2013-01-15 18:52:00,27.8,20.0,30.21,NNW,347,0.0,-999.0,72,-99.99,,,0.00,weatherlink.com 1.10,2013-01-15 23:52:00,
2013-01-15 19:07:00,27.6,20.0,30.20,NNW,347,0.0,-999.0,72,-99.99,,,0.00,weatherlink.com 1.10,2013-01-16 00:07:00,
2013-01-15 19:22:00,27.6,20.0,30.20,NNW,347,0.0,-999.0,73,-99.99,,,0.00,weatherlink.com 1.10,2013-01-16 00:22:00,
2013-01-15 19:37:00,27.6,20.0,30.20,NNW,347,0.0,-999.0,74,-99.99,,,0.00,weatherlink.com 1.10,2013-01-16 00:37:00,
2013-01-15 19:52:00,27.6,20.0,30.18,NNW,347,1.0,-999.0,74,-99.99,,,0.00,weatherlink.com 1.10,2013-01-16 00:52:00,
2013-01-15 20:07:00,27.5,20.0,30.19,NNW,347,0.0,-999.0,74,-99.99,,,0.00,weatherlink.com 1.10,2013-01-16 01:07:00,
2013-01-15 20:22:00,27.5,20.0,30.18,NNW,347,0.0,-999.0,74,-99.99,,,0.00,weatherlink.com 1.10,2013-01-16 01:22:00,
2013-01-15 20:37:00,27.5,20.0,30.17,NE,55,0.0,-999.0,74,-99.99,,,0.00,weatherlink.com 1.10,2013-01-16 01:37:00,
2013-01-15 20:52:00,27.5,21.0,30.16,NE,55,0.0,-999.0,75,-99.99,,,0.00,weatherlink.com 1.10,2013-01-16 01:52:00,
2013-01-15 21:07:00,27.5,21.0,30.17,NE,55,0.0,-999.0,75,-99.99,,,0.00,weatherlink.com 1.10,2013-01-16 02:07:00,
2013-01-15 21:22:00,27.5,21.0,30.15,NE,55,0.0,-999.0,75,-99.99,,,0.00,weatherlink.com 1.10,2013-01-16 02:22:00,
2013-01-15 21:37:00,27.5,21.0,30.15,NE,55,0.0,-999.0,75,-99.99,,,0.00,weatherlink.com 1.10,2013-01-16 02:37:00,
2013-01-15 21:52:00,27.6,21.0,30.15,NE,55,0.0,-999.0,76,-99.99,,,0.00,weatherlink.com 1.10,2013-01-16 02:52:00,
2013-01-15 22:07:00,27.6,21.0,30.13,NE,55,0.0,-999.0,76,-99.99,,,0.00,weatherlink.com 1.10,2013-01-16 03:07:00,
2013-01-15 22:22:00,27.6,21.0,30.12,NE,55,0.0,-999.0,77,-99.99,,,0.00,weatherlink.com 1.10,2013-01-16 03:22:00,
2013-01-15 22:37:00,27.6,21.0,30.12,NE,55,0.0,-999.0,77,-99.99,,,0.00,weatherlink.com 1.10,2013-01-16 03:37:00,
2013-01-15 22:52:00,27.8,22.0,30.12,NE,55,0.0,-999.0,78,-99.99,,,0.00,weatherlink.com 1.10,2013-01-16 03:52:00,
2013-01-15 23:07:00,27.6,22.0,30.11,NE,55,0.0,-999.0,78,-99.99,,,0.00,weatherlink.com 1.10,2013-01-16 04:07:00,
2013-01-15 23:22:00,27.6,22.0,30.09,NE,55,0.0,-999.0,78,-99.99,,,0.00,weatherlink.com 1.10,2013-01-16 04:22:00,
2013-01-15 23:37:00,27.6,22.0,30.09,NE,55,0.0,-999.0,78,-99.99,,,0.00,weatherlink.com 1.10,2013-01-16 04:37:00,
2013-01-15 23:52:00,27.6,22.0,30.07,NE,55,0.0,-999.0,78,-99.99,,,0.00,weatherlink.com 1.10,2013-01-16 04:52:00,